EW9032 Weather Reports


Display with metric or nautical units.
time (UTC)temp
F
wind
direction
speed
MPH
gust
MPH
rain 1hr
in
rain 24hr
in
rain mn
in
humidity
%
barometer
mb
20260906204704 94 153 3.0 9.0 0.00 0.00 0.00 32 1003.4
20260906204204 94 113 5.0 12.0 0.00 0.00 0.00 31 1003.4
20260906203705 94 169 4.0 12.0 0.00 0.00 0.00 33 1003.5
20260906203204 94 128 3.0 12.0 0.00 0.00 0.00 33 1003.5
20260906202704 94 150 7.0 14.0 0.00 0.00 0.00 32 1003.6
20260906201704 93 139 1.0 5.0 0.00 0.00 0.00 32 1003.7
20260906201205 93 82 3.0 8.0 0.00 0.00 0.00 31 1003.7
20260906200705 93 177 5.0 12.0 0.00 0.00 0.00 32 1003.9
20260906200205 93 176 6.0 10.0 0.00 0.00 0.00 31 1003.8
20260906195705 93 193 4.0 12.0 0.00 0.00 0.00 32 1003.8
20260906194705 92 213 6.0 10.0 0.00 0.00 0.00 32 1003.8
20260906193704 92 182 3.0 8.0 0.00 0.00 0.00 34 1003.8
20260906193205 92 215 5.0 16.0 0.00 0.00 0.00 34 1003.9
20260906192704 93 238 3.0 12.0 0.00 0.00 0.00 33 1003.9
20260906191704 94 136 2.0 3.0 0.00 0.00 0.00 33 1004.1
20260906191205 93 151 2.0 5.0 0.00 0.00 0.00 33 1004.1
20260906190705 93 196 3.0 5.0 0.00 0.00 0.00 33 1004.2
20260906190204 93 197 3.0 7.0 0.00 0.00 0.00 33 1004.2
20260906185705 92 105 1.0 3.0 0.00 0.00 0.00 33 1004.3
20260906185204 92 113 2.0 6.0 0.00 0.00 0.00 33 1004.4
20260906184704 92 116 2.0 6.0 0.00 0.00 0.00 34 1004.4
20260906183704 91 165 2.0 5.0 0.00 0.00 0.00 32 1004.6
20260906183204 92 204 5.0 8.0 0.00 0.00 0.00 32 1004.7
20260906182705 91 200 2.0 5.0 0.00 0.00 0.00 33 1004.8
20260906182204 90 29 1.0 8.0 0.00 0.00 0.00 34 1004.9
20260906181205 90 38 3.0 6.0 0.00 0.00 0.00 35 1005.2
20260906180705 90 44 4.0 7.0 0.00 0.00 0.00 36 1005.3
20260906180205 90 40 4.0 7.0 0.00 0.00 0.00 35 1005.4
20260906175205 90 35 3.0 6.0 0.00 0.00 0.00 34 1005.5
20260906174204 90 219 2.0 3.0 0.00 0.00 0.00 35 1005.6
20260906173704 88 217 1.0 2.0 0.00 0.00 0.00 36 1005.7
20260906173204 88 217 2.0 3.0 0.00 0.00 0.00 37 1005.7
20260906172704 87 217 3.0 6.0 0.00 0.00 0.00 37 1005.8
20260906171704 87 227 3.0 3.0 0.00 0.00 0.00 37 1006.1
20260906171204 87 227 2.0 3.0 0.00 0.00 0.00 38 1006.1
20260906170705 88 223 3.0 5.0 0.00 0.00 0.00 37 1006.2
20260906170204 88 225 2.0 3.0 0.00 0.00 0.00 37 1006.2
20260906165704 88 225 1.0 3.0 0.00 0.00 0.00 38 1006.4
20260906165204 87 225 1.0 3.0 0.00 0.00 0.00 39 1006.4
20260906164705 86 225 0.0 2.0 0.00 0.00 0.00 40 1006.4
20260906164204 85 225 1.0 3.0 0.00 0.00 0.00 40 1006.6
20260906163705 85 225 2.0 3.0 0.00 0.00 0.00 40 1006.6
20260906163204 84 225 0.0 3.0 0.00 0.00 0.00 42 1006.6
20260906162204 83 222 1.0 3.0 0.00 0.00 0.00 43 1006.7
20260906161704 82 221 1.0 2.0 0.00 0.00 0.00 43 1006.8
20260906161204 82 221 2.0 3.0 0.00 0.00 0.00 44 1006.8
20260906160705 82 229 5.0 7.0 0.00 0.00 0.00 43 1006.7
20260906160204 82 221 3.0 5.0 0.00 0.00 0.00 44 1006.7
20260906155205 81 270 2.0 3.0 0.00 0.00 0.00 45 1006.8
20260906154704 80 250 2.0 6.0 0.00 0.00 0.00 46 1006.8
20260906154205 80 277 1.0 5.0 0.00 0.00 0.00 47 1006.8
20260906153704 79 221 1.0 6.0 0.00 0.00 0.00 48 1006.8
20260906153204 79 209 3.0 8.0 0.00 0.00 0.00 48 1006.9
20260906152704 78 223 3.0 5.0 0.00 0.00 0.00 49 1006.8
20260906152204 78 232 1.0 5.0 0.00 0.00 0.00 49 1006.8
20260906151705 78 225 3.0 6.0 0.00 0.00 0.00 49 1006.7
20260906151204 77 255 2.0 3.0 0.00 0.00 0.00 49 1006.8
20260906150204 76 250 2.0 3.0 0.00 0.00 0.00 51 1006.9
20260906145704 76 211 2.0 3.0 0.00 0.00 0.00 51 1007.0
20260906144704 76 269 2.0 3.0 0.00 0.00 0.00 52 1007.1
20260906144204 75 284 3.0 6.0 0.00 0.00 0.00 52 1007.1
20260906143704 75 224 2.0 3.0 0.00 0.00 0.00 53 1007.1
20260906143205 75 223 3.0 7.0 0.00 0.00 0.00 53 1007.2
20260906142704 75 210 5.0 6.0 0.00 0.00 0.00 53 1007.2
20260906142203 75 176 2.0 6.0 0.00 0.00 0.00 53 1007.2
20260906141704 74 217 1.0 3.0 0.00 0.00 0.00 53 1007.2
20260906141204 74 217 2.0 5.0 0.00 0.00 0.00 53 1007.3
20260906140704 75 205 1.0 2.0 0.00 0.00 0.00 53 1007.4
20260906140204 74 205 1.0 2.0 0.00 0.00 0.00 53 1007.3
20260906135704 73 205 0.0 1.0 0.00 0.00 0.00 55 1007.3
20260906134704 72 205 1.0 3.0 0.00 0.00 0.00 56 1007.3
20260906134204 72 205 2.0 3.0 0.00 0.00 0.00 57 1007.4
20260906133704 72 204 1.0 3.0 0.00 0.00 0.00 58 1007.4
20260906133203 71 212 2.0 6.0 0.00 0.00 0.00 58 1007.5
20260906132705 71 219 3.0 7.0 0.00 0.00 0.00 58 1007.6
20260906132204 71 227 5.0 6.0 0.00 0.00 0.00 58 1007.6
20260906131704 70 232 2.0 3.0 0.00 0.00 0.00 60 1007.7
20260906131204 70 232 0.0 1.0 0.00 0.00 0.00 61 1007.7
20260906130704 69 232 0.0 0.0 0.00 0.00 0.00 62 1007.7
20260906130204 69 232 1.0 2.0 0.00 0.00 0.00 62 1007.6
20260906125703 68 232 2.0 3.0 0.00 0.00 0.00 62 1007.6
20260906124704 68 232 1.0 2.0 0.00 0.00 0.00 63 1007.6
20260906124204 67 232 0.0 3.0 0.00 0.00 0.00 64 1007.5
20260906122204 68 233 1.0 2.0 0.00 0.00 0.00 61 1007.4
20260906121704 69 233 0.0 0.0 0.00 0.00 0.00 60 1007.3
20260906121204 69 233 0.0 1.0 0.00 0.00 0.00 59 1007.4
20260906120203 70 233 1.0 3.0 0.00 0.00 0.00 58 1007.5
20260906115204 70 233 2.0 3.0 0.00 0.00 0.00 58 1007.4
20260906114704 70 233 1.0 3.0 0.00 0.00 0.00 58 1007.4
20260906114204 70 233 1.0 3.0 0.00 0.00 0.00 57 1007.3
20260906113204 71 233 0.0 2.0 0.00 0.00 0.00 55 1007.3
20260906112704 72 233 2.0 3.0 0.00 0.00 0.00 54 1007.3
20260906112204 72 233 0.0 2.0 0.00 0.00 0.00 53 1007.3
20260906111704 72 233 1.0 3.0 0.00 0.00 0.00 53 1007.3
20260906111204 72 232 1.0 3.0 0.00 0.00 0.00 53 1007.2
20260906110704 72 242 2.0 3.0 0.00 0.00 0.00 53 1007.3
20260906110204 72 243 1.0 2.0 0.00 0.00 0.00 53 1007.2
20260906105704 73 243 1.0 3.0 0.00 0.00 0.00 52 1007.1
20260906105204 73 243 1.0 6.0 0.00 0.00 0.00 52 1007.1
20260906104704 73 234 1.0 3.0 0.00 0.00 0.00 51 1007.0
20260906104204 73 168 1.0 5.0 0.00 0.00 0.00 51 1007.0
20260906103704 73 223 3.0 6.0 0.00 0.00 0.00 51 1006.9
20260906103204 73 186 1.0 3.0 0.00 0.00 0.00 52 1006.8
20260906102704 73 186 2.0 7.0 0.00 0.00 0.00 51 1006.8
20260906102203 73 221 3.0 6.0 0.00 0.00 0.00 51 1006.9
20260906101705 74 257 4.0 8.0 0.00 0.00 0.00 51 1006.9
20260906101206 74 264 4.0 7.0 0.00 0.00 0.00 50 1006.9
20260906100706 74 266 3.0 6.0 0.00 0.00 0.00 49 1006.8
20260906095706 74 186 2.0 3.0 0.00 0.00 0.00 49 1006.5
20260906095205 75 182 0.0 6.0 0.00 0.00 0.00 49 1006.4
20260906094705 75 179 2.0 9.0 0.00 0.00 0.00 49 1006.4
20260906093705 74 267 2.0 7.0 0.00 0.00 0.00 50 1006.4
20260906093206 74 279 3.0 6.0 0.00 0.00 0.00 50 1006.3
20260906092706 74 303 2.0 3.0 0.00 0.00 0.00 51 1006.4
20260906092206 75 304 1.0 7.0 0.00 0.00 0.00 50 1006.4
20260906091706 75 342 1.0 6.0 0.00 0.00 0.00 49 1006.4
20260906091205 76 314 1.0 8.0 0.00 0.00 0.00 46 1006.2
20260906090205 76 176 2.0 7.0 0.00 0.00 0.00 46 1006.0
20260906085705 76 215 7.0 18.0 0.00 0.00 0.00 47 1005.9
20260906085206 76 192 5.0 14.0 0.00 0.00 0.00 48 1005.8
20260906084706 76 185 6.0 18.0 0.00 0.00 0.00 48 1005.6
20260906084206 76 189 8.0 18.0 0.00 0.00 0.00 49 1005.3
20260906083706 76 177 9.0 17.0 0.00 0.00 0.00 49 1005.2
20260906083205 75 176 10.0 17.0 0.00 0.00 0.00 50 1005.1
20260906081706 75 193 8.0 14.0 0.00 0.00 0.00 52 1005.2
20260906081206 75 173 7.0 20.0 0.00 0.00 0.00 52 1005.3
20260906080705 76 167 6.0 15.0 0.00 0.00 0.00 52 1005.4
20260906080205 76 186 7.0 14.0 0.00 0.00 0.00 51 1005.4
20260906075705 76 181 8.0 16.0 0.00 0.00 0.00 50 1005.5
20260906075205 76 188 10.0 18.0 0.00 0.00 0.00 50 1005.5
20260906074705 76 198 12.0 20.0 0.00 0.00 0.00 50 1005.5
20260906074206 77 188 10.0 18.0 0.00 0.00 0.00 50 1005.6
20260906073705 77 195 11.0 20.0 0.00 0.00 0.00 49 1005.6
20260906073205 78 177 7.0 16.0 0.00 0.00 0.00 47 1005.7
20260906072705 78 185 6.0 13.0 0.00 0.00 0.00 45 1005.8
20260906072206 79 187 5.0 18.0 0.00 0.00 0.00 44 1005.9
20260906071705 79 175 4.0 10.0 0.00 0.00 0.00 44 1005.9
20260906070706 79 179 7.0 15.0 0.00 0.00 0.00 43 1005.7
20260906070205 79 170 6.0 13.0 0.00 0.00 0.00 45 1005.5
20260906064705 78 202 7.0 12.0 0.00 0.00 0.00 46 1005.3
20260906064205 79 192 6.0 12.0 0.00 0.00 0.00 46 1005.3
20260906063706 79 196 3.0 12.0 0.00 0.00 0.00 45 1005.5
20260906062705 79 204 5.0 10.0 0.00 0.00 0.00 45 1005.5
20260906062206 79 188 9.0 16.0 0.00 0.00 0.00 45 1005.5
20260906061705 80 208 8.0 14.0 0.00 0.00 0.00 43 1005.4
20260906061206 80 196 6.0 12.0 0.00 0.00 0.00 43 1005.3
20260906060206 80 183 5.0 12.0 0.00 0.00 0.00 43 1005.2
20260906055706 79 158 5.0 18.0 0.00 0.00 0.00 43 1005.1
20260906055205 79 153 7.0 13.0 0.00 0.00 0.00 44 1005.1
20260906054705 79 165 6.0 13.0 0.00 0.00 0.00 45 1005.2
20260906053705 79 176 4.0 10.0 0.00 0.00 0.00 46 1005.0
20260906053205 79 148 3.0 10.0 0.00 0.00 0.00 46 1004.9
20260906051206 79 153 5.0 12.0 0.00 0.00 0.00 48 1004.7
20260906050706 78 138 5.0 13.0 0.00 0.00 0.00 48 1004.8
20260906050206 78 133 4.0 7.0 0.00 0.00 0.00 49 1004.9
20260906045705 78 158 3.0 12.0 0.00 0.00 0.00 50 1005.2
20260906045205 78 134 3.0 12.0 0.00 0.00 0.00 50 1005.3
20260906044705 78 143 6.0 12.0 0.00 0.00 0.00 51 1005.4
20260906043706 78 117 4.0 12.0 0.00 0.00 0.00 52 1005.6
20260906042705 78 132 5.0 12.0 0.00 0.00 0.00 51 1005.5
20260906042206 78 195 5.0 14.0 0.00 0.00 0.00 53 1005.5
20260906041705 78 173 3.0 13.0 0.00 0.00 0.00 54 1005.5
20260906041205 78 158 4.0 12.0 0.00 0.00 0.00 54 1005.5
20260906040705 78 158 5.0 12.0 0.00 0.00 0.00 55 1005.4
20260906040205 78 146 6.0 12.0 0.00 0.00 0.00 56 1005.5
20260906035205 77 162 6.0 14.0 0.00 0.00 0.00 58 1005.5
20260906034706 77 156 5.0 15.0 0.00 0.00 0.00 59 1005.7
20260906034205 77 155 5.0 16.0 0.00 0.00 0.00 60 1005.9
20260906033705 77 150 5.0 12.0 0.00 0.00 0.00 60 1005.7
20260906033205 77 161 2.0 12.0 0.00 0.00 0.00 60 1005.6
20260906032205 78 116 3.0 10.0 0.00 0.00 0.00 58 1005.5
20260906031705 78 157 5.0 13.0 0.00 0.00 0.00 55 1005.5
20260906031205 79 163 3.0 10.0 0.00 0.00 0.00 52 1005.7
20260906030705 80 174 5.0 8.0 0.00 0.00 0.00 50 1005.7
20260906030205 80 187 6.0 18.0 0.00 0.00 0.00 49 1006.0
20260906025706 80 145 5.0 12.0 0.00 0.00 0.00 49 1006.1
20260906025205 81 132 5.0 15.0 0.00 0.00 0.00 50 1006.3
20260906024705 81 123 2.0 12.0 0.00 0.00 0.00 52 1006.2
20260906024205 81 122 3.0 6.0 0.00 0.00 0.00 58 1006.2
20260906023705 81 173 3.0 9.0 0.00 0.00 0.00 60 1006.2
20260906023205 81 166 2.0 5.0 0.00 0.00 0.00 60 1006.1
20260906022705 81 140 2.0 6.0 0.00 0.00 0.00 60 1005.8
20260906021705 81 138 2.0 3.0 0.00 0.00 0.00 59 1005.4
20260906020705 82 123 1.0 2.0 0.00 0.00 0.00 58 1004.8
20260906015705 82 123 0.0 2.0 0.00 0.00 0.00 56 1004.4
20260906015205 83 123 1.0 2.0 0.00 0.00 0.00 56 1004.2
20260906014705 83 123 0.0 1.0 0.00 0.00 0.00 54 1004.3
20260906014205 83 123 0.0 2.0 0.00 0.00 0.00 54 1004.2
20260906013705 84 123 1.0 2.0 0.00 0.00 0.00 53 1004.0
20260906013205 84 123 0.0 1.0 0.00 0.00 0.00 53 1004.1
20260906012704 84 123 0.0 2.0 0.00 0.00 0.00 53 1004.0
20260906011705 85 123 0.0 1.0 0.00 0.00 0.00 51 1004.0
20260906011205 85 123 0.0 2.0 0.00 0.00 0.00 51 1004.0
20260906010705 85 123 1.0 2.0 0.00 0.00 0.00 50 1003.9
20260906010205 86 123 1.0 3.0 0.00 0.00 0.00 50 1003.8
20260906005205 86 123 2.0 3.0 0.00 0.00 0.00 49 1003.8
20260906004705 86 123 1.0 3.0 0.00 0.00 0.00 48 1004.0
20260906004205 87 100 2.0 7.0 0.00 0.00 0.00 48 1004.1
20260906003705 87 148 3.0 7.0 0.00 0.00 0.00 47 1004.1
20260906003205 87 117 2.0 6.0 0.00 0.00 0.00 47 1004.0
20260906002705 88 136 2.0 7.0 0.00 0.00 0.00 46 1003.9
20260906002205 88 122 1.0 6.0 0.00 0.00 0.00 46 1003.9
20260906001705 88 181 3.0 6.0 0.00 0.00 0.00 46 1003.9
20260906001205 88 142 3.0 7.0 0.00 0.00 0.00 46 1003.8
20260906000705 88 134 3.0 7.0 0.00 0.00 0.00 46 1003.7
20260905235205 89 46 2.0 7.0 0.00 0.00 0.00 45 1003.7
20260905234205 89 81 2.0 7.0 0.00 0.00 0.00 45 1003.7
20260905233704 89 141 4.0 12.0 0.00 0.00 0.00 44 1003.6
20260905233205 89 140 5.0 12.0 0.00 0.00 0.00 44 1003.6
20260905232705 89 118 6.0 9.0 0.00 0.00 0.00 44 1003.5
20260905231205 88 134 1.0 7.0 0.00 0.00 0.00 45 1003.3
20260905230705 89 65 3.0 7.0 0.00 0.00 0.00 45 1003.2
20260905230205 89 149 5.0 10.0 0.00 0.00 0.00 44 1003.3
20260905225705 89 146 5.0 13.0 0.00 0.00 0.00 44 1003.3
20260905225204 89 142 5.0 12.0 0.00 0.00 0.00 43 1003.2
20260905224705 88 126 5.0 16.0 0.00 0.00 0.00 43 1003.3
20260905224205 88 117 5.0 10.0 0.00 0.00 0.00 43 1003.4
20260905223705 88 124 4.0 12.0 0.00 0.00 0.00 42 1003.2
20260905223205 89 120 7.0 18.0 0.00 0.00 0.00 40 1003.2
20260905222704 90 146 7.0 17.0 0.00 0.00 0.00 40 1003.3
20260905221704 89 107 4.0 12.0 0.00 0.00 0.00 42 1003.4
20260905221205 89 114 6.0 12.0 0.00 0.00 0.00 41 1003.4
20260905220204 86 101 6.0 13.0 0.00 0.00 0.00 44 1003.6
20260905215704 85 71 5.0 12.0 0.00 0.00 0.00 48 1003.7
20260905215205 84 77 9.0 16.0 0.00 0.00 0.00 48 1003.9
20260905214705 84 72 9.0 16.0 0.00 0.00 0.00 49 1003.9
20260905214204 84 82 8.0 17.0 0.00 0.00 0.00 48 1003.9
20260905213704 84 77 9.0 14.0 0.00 0.00 0.00 47 1004.1
20260905213204 85 98 7.0 23.0 0.00 0.00 0.00 44 1004.0
20260905212705 87 88 13.0 23.0 0.00 0.00 0.00 41 1004.2
20260905212205 89 70 14.0 30.0 0.00 0.00 0.00 38 1004.2
20260905211705 95 65 14.0 24.0 0.00 0.00 0.00 31 1004.1
20260905211205 96 16 9.0 18.0 0.00 0.00 0.00 23 1003.5
20260905210705 96 27 9.0 20.0 0.00 0.00 0.00 23 1003.2
20260905210205 96 18 7.0 14.0 0.00 0.00 0.00 23 1002.8
20260905205704 96 9 8.0 15.0 0.00 0.00 0.00 23 1002.7
20260905205205 96 359 7.0 13.0 0.00 0.00 0.00 22 1002.6